SQ5AAG-2 Weather Reports


time (UTC)temp
C
wind
direction
speed
KPH
gust
KPH
rain 1hr
cm
rain 24hr
cm
rain mn
cm
humidity
%
barometer
mb
20260508073117 10 0 3.2 3.2 0.00 0.00 0.00 81 1002.6
20260508072617 10 22 0.0 0.0 0.00 0.00 0.00 81 1002.6
20260508072117 11 0 0.0 3.2 0.00 0.00 0.00 81 1002.5
20260508071116 10 0 0.0 0.0 0.00 0.00 0.00 81 1002.5
20260508070616 10 202 0.0 1.6 0.00 0.00 0.00 81 1002.5
20260508070115 10 0 0.0 0.0 0.00 0.00 0.00 82 1002.4
20260508065615 10 0 0.0 0.0 0.00 0.00 0.00 83 1002.3
20260508065115 10 180 0.0 0.0 0.00 0.00 0.00 82 1002.2
20260508064615 10 22 0.0 0.0 0.00 0.00 0.00 82 1002.2
20260508064114 10 22 0.0 0.0 0.00 0.00 0.00 82 1002.1
20260508063615 10 202 0.0 0.0 0.00 0.00 0.00 82 1002.0
20260508063114 10 0 0.0 0.0 0.00 0.00 0.00 82 1002.1
20260508062613 10 157 0.0 0.0 0.00 0.00 0.00 82 1002.0
20260508062113 10 157 0.0 0.0 0.00 0.00 0.00 83 1002.2
20260508061613 10 0 0.0 0.0 0.00 0.00 0.00 83 1002.0
20260508061112 10 22 0.0 0.0 0.00 0.00 0.00 83 1001.9
20260508060612 10 22 0.0 0.0 0.00 0.00 0.00 84 1001.9
20260508060112 10 22 0.0 1.6 0.00 0.00 0.00 84 1001.9
20260508055612 10 0 0.0 0.0 0.00 0.00 0.00 84 1001.9
20260508055111 10 0 0.0 1.6 0.00 0.00 0.00 84 1001.7
20260508054611 10 0 0.0 0.0 0.00 0.00 0.00 84 1001.8
20260508054111 10 0 0.0 0.0 0.00 0.00 0.00 84 1001.8
20260508053610 10 0 0.0 3.2 0.00 0.00 0.00 84 1001.9
20260508053110 10 0 0.0 0.0 0.00 0.00 0.00 84 1001.8
20260508052610 10 0 0.0 0.0 0.00 0.00 0.00 85 1001.6
20260508052110 10 22 0.0 0.0 0.00 0.00 0.00 85 1001.7
20260508051609 10 45 0.0 0.0 0.00 0.00 0.00 85 1001.7
20260508051110 9 0 0.0 0.0 0.00 0.00 0.00 85 1001.8
20260508050609 9 0 0.0 0.0 0.00 0.00 0.00 85 1001.4
20260508050108 9 0 0.0 0.0 0.00 0.00 0.00 85 1001.3
20260508045608 9 0 0.0 0.0 0.00 0.00 0.00 85 1001.4
20260508045108 9 0 0.0 0.0 0.00 0.00 0.00 85 1001.5
20260508044607 9 0 0.0 0.0 0.00 0.00 0.00 85 1001.5
20260508044107 9 202 0.0 0.0 0.00 0.00 0.00 84 1001.3
20260508043607 9 22 0.0 0.0 0.00 0.00 0.00 84 1001.4
20260508043107 9 22 0.0 0.0 0.00 0.00 0.00 84 1001.3
20260508042606 9 0 0.0 0.0 0.00 0.00 0.00 84 1001.3
20260508042107 9 0 0.0 0.0 0.00 0.00 0.00 83 1001.3
20260508041606 9 0 0.0 0.0 0.00 0.00 0.00 83 1001.4
20260508041105 9 0 0.0 0.0 0.00 0.00 0.00 83 1001.2
20260508040605 9 0 0.0 0.0 0.00 0.00 0.00 83 1001.2
20260508040105 9 0 0.0 0.0 0.00 0.00 0.00 83 1001.3
20260508035605 9 180 0.0 0.0 0.00 0.00 0.00 83 1001.4
20260508035105 9 180 0.0 0.0 0.00 0.00 0.00 83 1001.2
20260508034604 9 157 0.0 0.0 0.00 0.00 0.00 83 1001.2
20260508034104 9 0 0.0 1.6 0.00 0.00 0.00 83 1001.4
20260508033603 9 180 1.6 1.6 0.00 0.00 0.00 83 1001.3
20260508033103 9 180 0.0 0.0 0.00 0.00 0.00 82 1001.3
20260508032603 9 180 0.0 0.0 0.00 0.00 0.00 82 1001.3
20260508032102 9 180 0.0 0.0 0.00 0.00 0.00 82 1001.3
20260508031602 9 22 0.0 0.0 0.00 0.00 0.00 82 1001.3
20260508031102 9 22 0.0 0.0 0.00 0.00 0.00 82 1001.2
20260508030602 9 22 0.0 0.0 0.00 0.00 0.00 82 1001.2
20260508025601 9 0 0.0 0.0 0.00 0.00 0.00 82 1001.1
20260508025101 9 135 0.0 0.0 0.00 0.00 0.00 82 1000.9
20260508024600 9 157 0.0 0.0 0.00 0.00 0.00 82 1000.9
20260508024100 9 0 0.0 0.0 0.00 0.00 0.00 82 1000.8
20260508023600 9 0 0.0 0.0 0.00 0.00 0.00 82 1000.9
20260508023100 9 180 0.0 0.0 0.00 0.00 0.00 82 1000.9
20260508022559 9 180 0.0 0.0 0.00 0.00 0.00 82 1000.8
20260508022059 9 22 0.0 0.0 0.00 0.00 0.00 82 1000.9
20260508021559 9 22 0.0 0.0 0.00 0.00 0.00 82 1000.9
20260508021058 9 180 0.0 0.0 0.00 0.00 0.00 82 1001.0
20260508020558 9 180 0.0 0.0 0.00 0.00 0.00 82 1001.0
20260508020058 9 180 0.0 0.0 0.00 0.00 0.00 82 1000.9
20260508015558 9 157 0.0 0.0 0.00 0.00 0.00 81 1000.7
20260508015057 9 135 0.0 0.0 0.00 0.00 0.00 81 1000.8
20260508014557 10 157 0.0 1.6 0.00 0.00 0.00 81 1000.8
20260508014057 10 157 0.0 0.0 0.00 0.00 0.00 81 1000.8
20260508013556 10 157 0.0 0.0 0.00 0.00 0.00 81 1000.8
20260508013056 10 180 0.0 0.0 0.00 0.00 0.00 81 1000.9
20260508012556 10 180 0.0 0.0 0.00 0.00 0.00 80 1000.9
20260508012055 10 135 0.0 0.0 0.00 0.00 0.00 80 1000.8
20260508011555 10 157 0.0 0.0 0.00 0.00 0.00 80 1000.8
20260508011055 10 180 0.0 0.0 0.00 0.00 0.00 80 1000.8
20260508010555 10 180 0.0 0.0 0.00 0.00 0.00 80 1000.8
20260508010054 10 180 0.0 0.0 0.00 0.00 0.00 80 1000.6
20260508005555 10 67 0.0 0.0 0.00 0.00 0.00 80 1000.8
20260508005054 10 202 0.0 0.0 0.00 0.00 0.00 80 1000.5
20260508004554 10 202 0.0 0.0 0.00 0.00 0.00 80 1000.6
20260508004053 10 157 0.0 0.0 0.00 0.00 0.00 80 1000.6
20260508001052 10 45 0.0 0.0 0.00 0.00 0.00 80 1000.5
20260508000552 10 180 0.0 0.0 0.00 0.00 0.00 80 1000.5
20260508000051 10 135 0.0 0.0 0.00 0.00 0.00 80 1000.5
20260507235551 10 112 0.0 0.0 0.00 0.00 0.00 80 1000.6
20260507235051 10 180 0.0 0.0 0.00 0.00 0.00 80 1000.5
20260507234550 10 225 0.0 0.0 0.00 0.00 0.00 79 1000.5
20260507234050 10 0 0.0 0.0 0.00 0.00 0.00 79 1000.5
20260507233550 10 0 0.0 0.0 0.00 0.00 0.00 79 1000.5
20260507233050 10 45 0.0 0.0 0.00 0.00 0.00 79 1000.5
20260507232549 10 225 0.0 0.0 0.00 0.00 0.00 79 1000.5
20260507232049 10 0 0.0 0.0 0.00 0.00 0.00 79 1000.6
20260507231549 10 0 0.0 1.6 0.00 0.00 0.00 79 1000.7
20260507231048 10 0 1.6 1.6 0.00 0.00 0.00 79 1000.6
20260507230548 10 22 0.0 1.6 0.00 0.00 0.00 78 1000.6
20260507230048 10 202 0.0 0.0 0.00 0.00 0.00 78 1000.5
20260507225548 11 180 0.0 0.0 0.00 0.00 0.00 78 1000.5
20260507225047 11 22 0.0 3.2 0.00 0.00 0.00 78 1000.6
20260507224547 11 22 3.2 3.2 0.00 0.00 0.00 78 1000.4
20260507224047 11 135 0.0 0.0 0.00 0.00 0.00 78 1000.3
20260507223546 11 22 0.0 0.0 0.00 0.00 0.00 78 1000.3
20260507223046 11 22 0.0 0.0 0.00 0.00 0.00 78 1000.3
20260507222546 11 22 0.0 0.0 0.00 0.00 0.00 78 1000.3
20260507222045 11 22 0.0 0.0 0.00 0.00 0.00 78 1000.3
20260507221545 11 22 0.0 1.6 0.00 0.00 0.00 78 1000.1
20260507221045 11 0 1.6 1.6 0.00 0.00 0.00 78 1000.0
20260507220545 11 0 0.0 0.0 0.00 0.00 0.00 78 1000.0
20260507220044 11 0 0.0 0.0 0.00 0.00 0.00 78 1000.1
20260507215544 11 22 0.0 0.0 0.00 0.00 0.00 78 1000.1
20260507215044 11 0 0.0 0.0 0.00 0.00 0.00 78 999.8
20260507214543 11 0 0.0 0.0 0.00 0.00 0.00 78 999.9
20260507214043 11 0 0.0 0.0 0.00 0.00 0.00 78 1000.0
20260507213543 11 0 0.0 0.0 0.00 0.00 0.00 78 999.9
20260507213043 11 337 0.0 0.0 0.00 0.00 0.00 77 999.9
20260507212542 11 180 0.0 0.0 0.00 0.00 0.00 77 999.8
20260507212042 11 22 0.0 0.0 0.00 0.00 0.00 77 999.9
20260507211542 11 180 0.0 1.6 0.00 0.00 0.00 77 999.9
20260507211042 11 22 1.6 1.6 0.00 0.00 0.00 77 999.8
20260507210541 11 22 0.0 1.6 0.00 0.00 0.00 77 999.7
20260507210041 11 22 1.6 1.6 0.00 0.00 0.00 77 999.7
20260507205540 11 135 0.0 0.0 0.00 0.00 0.00 77 999.8
20260507205040 11 22 0.0 0.0 0.00 0.00 0.00 77 999.8
20260507204540 11 180 0.0 0.0 0.00 0.00 0.00 77 999.8
20260507204040 11 180 0.0 0.0 0.00 0.00 0.00 77 1000.0
20260507203539 11 180 0.0 0.0 0.00 0.00 0.00 76 999.8
20260507203039 11 202 0.0 0.0 0.00 0.00 0.00 76 999.7
20260507202539 11 202 0.0 0.0 0.00 0.00 0.00 76 999.8
20260507202038 11 337 0.0 0.0 0.00 0.00 0.00 76 999.8
20260507201538 11 22 0.0 0.0 0.00 0.00 0.00 76 999.8
20260507201038 11 22 0.0 0.0 0.00 0.00 0.00 77 999.8
20260507200538 11 157 0.0 0.0 0.00 0.00 0.00 76 999.9
20260507200037 11 157 0.0 0.0 0.00 0.00 0.00 76 999.7
20260507195537 11 157 0.0 1.6 0.00 0.00 0.00 76 999.6
20260507195037 11 135 1.6 1.6 0.00 0.00 0.00 76 999.5
20260507194536 11 180 0.0 0.0 0.00 0.00 0.00 76 999.5
20260507194036 11 180 0.0 0.0 0.00 0.00 0.00 76 999.7
20260507193537 11 45 0.0 0.0 0.00 0.00 0.00 76 999.5
20260507193035 11 67 0.0 0.0 0.00 0.00 0.00 76 999.7
20260507192535 11 135 0.0 0.0 0.00 0.00 0.00 76 999.6
20260507192035 11 180 0.0 0.0 0.00 0.00 0.00 76 999.6
20260507191535 11 135 0.0 8.0 0.00 0.00 0.00 76 999.6
20260507191034 11 157 0.0 0.0 0.00 0.00 0.00 76 999.2
20260507190534 12 180 0.0 0.0 0.00 0.00 0.00 76 999.1
20260507190034 12 180 0.0 0.0 0.00 0.00 0.00 76 999.3
20260507185534 12 135 0.0 0.0 0.00 0.00 0.00 76 999.3
20260507185033 12 292 0.0 0.0 0.00 0.00 0.00 75 999.4
20260507184533 12 0 0.0 0.0 0.00 0.00 0.00 75 999.3
20260507184033 12 22 0.0 1.6 0.00 0.00 0.00 75 999.2
20260507183532 12 0 1.6 1.6 0.00 0.00 0.00 75 999.0
20260507183032 12 22 0.0 0.0 0.00 0.00 0.00 75 999.0
20260507182610 12 0 0.0 1.6 0.00 0.00 0.00 75 999.1
20260507182532 12 0 0.0 1.6 0.00 0.00 0.00 75 999.1
20260507182031 12 0 0.0 3.2 0.00 0.00 0.00 75 999.1
20260507181633 12 0 3.2 3.2 0.00 0.00 0.00 75 998.7
20260507181531 12 0 0.0 3.2 0.00 0.00 0.00 75 998.9
20260507181031 12 0 3.2 3.2 0.00 0.00 0.00 75 998.7
20260507180531 12 45 0.0 0.0 0.00 0.00 0.00 75 998.8
20260507180030 12 0 0.0 0.0 0.00 0.00 0.00 75 998.7
20260507175612 12 22 0.0 1.6 0.00 0.00 0.00 75 998.8
20260507175530 12 22 0.0 1.6 0.00 0.00 0.00 75 998.8
20260507175030 12 0 1.6 1.6 0.00 0.00 0.00 75 998.8
20260507174529 12 0 0.0 3.2 0.00 0.00 0.00 74 998.5
20260507174029 12 0 0.0 6.4 0.00 0.00 0.00 74 998.4
20260507173529 13 0 0.0 3.2 0.00 0.00 0.00 74 998.2
20260507173028 13 22 0.0 4.8 0.00 0.00 0.00 74 998.0
20260507172528 13 0 4.8 4.8 0.00 0.00 0.00 74 997.8
20260507172028 13 0 0.0 0.0 0.00 0.00 0.00 74 997.8
20260507171528 13 0 0.0 4.8 0.00 0.00 0.00 74 997.9
20260507171027 13 0 4.8 4.8 0.00 0.00 0.00 73 997.9
20260507170527 13 0 0.0 0.0 0.00 0.00 0.00 73 997.8
20260507170027 13 22 0.0 0.0 0.00 0.00 0.00 73 997.7
20260507165526 13 0 0.0 0.0 0.00 0.00 0.00 72 997.7
20260507165026 13 0 0.0 1.6 0.00 0.00 0.00 72 997.6
20260507164526 13 0 0.0 1.6 0.00 0.00 0.00 72 997.6
20260507164026 13 22 0.0 0.0 0.00 0.00 0.00 71 997.5
20260507163525 13 180 0.0 0.0 0.00 0.00 0.00 71 997.6
20260507163025 13 0 0.0 1.6 0.00 0.00 0.00 71 997.3
20260507162526 14 0 1.6 11.3 0.00 0.00 0.00 71 997.4
20260507162025 14 22 0.0 3.2 0.00 0.00 0.00 71 997.5
20260507161525 14 0 0.0 0.0 0.00 0.00 0.00 70 997.7
20260507161024 14 0 0.0 0.0 0.00 0.00 0.00 70 997.8
20260507160524 14 0 0.0 6.4 0.00 0.00 0.00 70 997.7
20260507160024 14 180 0.0 0.0 0.00 0.00 0.00 71 997.8
20260507155523 14 180 0.0 1.6 0.00 0.00 0.00 71 997.8
20260507155023 14 0 1.6 1.6 0.00 0.00 0.00 71 997.7
20260507154522 14 0 0.0 9.7 0.00 0.00 0.00 71 997.8
20260507154022 14 0 6.4 6.4 0.00 0.00 0.00 71 998.0
20260507153522 14 0 6.4 6.4 0.00 0.00 0.00 70 997.8
20260507153021 14 0 0.0 8.0 0.00 0.00 0.00 70 997.8
20260507152521 15 0 0.0 9.7 0.00 0.00 0.00 70 997.8
20260507152024 15 0 9.7 9.7 0.00 0.00 0.00 69 997.7
20260507151521 15 0 4.8 4.8 0.00 0.00 0.00 69 997.7
20260507151020 15 22 0.0 4.8 0.00 0.00 0.00 69 997.8
20260507150520 15 22 4.8 4.8 0.00 0.00 0.00 68 997.9
20260507150020 15 0 0.0 8.0 0.00 0.00 0.00 68 997.7
20260507145521 15 0 8.0 8.0 0.00 0.00 0.00 68 997.7
20260507145019 16 0 3.2 3.2 0.00 0.00 0.00 68 997.7
20260507144519 15 180 3.2 9.7 0.00 0.00 0.00 67 997.6
20260507144019 15 0 3.2 3.2 0.00 0.00 0.00 68 997.7
20260507143518 16 22 0.0 1.6 0.00 0.00 0.00 68 997.5
20260507143019 16 0 1.6 1.6 0.00 0.00 0.00 68 997.5
20260507142518 16 22 0.0 0.0 0.00 0.00 0.00 67 997.5
20260507142018 16 22 0.0 12.9 0.00 0.00 0.00 67 997.5
20260507141517 16 22 0.0 6.4 0.00 0.00 0.00 68 997.4
20260507141017 16 0 6.4 6.4 0.00 0.00 0.00 68 997.2
20260507140516 16 0 6.4 6.4 0.00 0.00 0.00 68 997.2
20260507140016 16 22 0.0 6.4 0.00 0.00 0.00 68 997.3
20260507135517 16 0 0.0 0.0 0.00 0.00 0.00 68 997.1
20260507135016 16 0 0.0 6.4 0.00 0.00 0.00 67 997.3
20260507134515 16 22 6.4 6.4 0.00 0.00 0.00 68 997.3
20260507134015 16 0 0.0 3.2 0.00 0.00 0.00 68 997.4
20260507133515 16 22 0.0 3.2 0.00 0.00 0.00 68 997.3
20260507133015 16 0 3.2 8.0 0.00 0.00 0.00 68 997.4
20260507132514 16 0 8.0 14.5 0.00 0.00 0.00 69 997.2
20260507132015 16 0 0.0 14.5 0.00 0.00 0.00 69 997.2
20260507131514 16 0 3.2 3.2 0.00 0.00 0.00 70 997.1
20260507131014 15 0 0.0 0.0 0.00 0.00 0.00 70 997.2
20260507130513 15 0 0.0 9.7 0.00 0.00 0.00 71 997.2
20260507130013 15 0 9.7 9.7 0.00 0.00 0.00 71 997.3
20260507125512 15 22 0.0 0.0 0.00 0.00 0.00 71 997.2
20260507125012 15 22 0.0 1.6 0.00 0.00 0.00 70 997.3
20260507124512 15 22 0.0 0.0 0.00 0.00 0.00 71 997.2
20260507124012 15 0 0.0 4.8 0.00 0.00 0.00 70 997.3
20260507123511 16 22 0.0 6.4 0.00 0.00 0.00 70 997.4
20260507123012 16 0 6.4 6.4 0.00 0.00 0.00 70 997.3
20260507122511 16 0 0.0 6.4 0.00 0.00 0.00 70 997.2
20260507120126 17 22 1.6 1.6 0.00 0.00 0.00 69 997.2
20260507115625 16 0 0.0 0.0 0.00 0.00 0.00 70 997.1
20260507115125 16 0 0.0 1.6 0.00 0.00 0.00 70 997.3
20260507114625 16 22 0.0 6.4 0.00 0.00 0.00 70 997.3
20260507114125 16 22 0.0 3.2 0.00 0.00 0.00 72 996.9
20260507113625 15 0 3.2 3.2 0.00 0.00 0.00 73 996.8
20260507113124 15 0 3.2 3.2 0.00 0.00 0.00 73 996.7
20260507112624 15 22 0.0 0.0 0.00 0.00 0.00 74 996.8
20260507112123 15 0 0.0 4.8 0.00 0.00 0.00 74 996.9
20260507111624 15 22 3.2 4.8 0.00 0.00 0.00 75 996.7
20260507111123 15 0 0.0 3.2 0.00 0.00 0.00 76 996.7
20260507110631 14 0 0.0 1.6 0.00 0.00 0.00 77 996.7
20260507110623 14 0 0.0 1.6 0.00 0.00 0.00 77 996.7
20260507110122 14 0 1.6 3.2 0.00 0.00 0.00 78 996.7
20260507105622 13 22 3.2 3.2 0.00 0.00 0.00 79 996.7
20260507105122 13 0 1.6 1.6 0.00 0.00 0.00 78 996.5
20260507104621 13 22 0.0 0.0 0.00 0.00 0.00 79 996.5
20260507104121 13 22 0.0 3.2 0.00 0.00 0.00 78 996.4
20260507103621 13 0 3.2 3.2 0.00 0.00 0.00 78 996.4
20260507103121 13 22 1.6 9.7 0.00 0.00 0.00 78 996.5
20260507102620 13 0 9.7 9.7 0.00 0.00 0.00 78 996.4
20260507102120 13 22 0.0 0.0 0.00 0.00 0.00 79 996.3
20260507101625 13 22 0.0 0.0 0.00 0.00 0.00 78 996.3
20260507101620 13 22 0.0 0.0 0.00 0.00 0.00 78 996.3
20260507101119 13 22 0.0 0.0 0.00 0.00 0.00 78 996.1
20260507100619 13 0 0.0 0.0 0.00 0.00 0.00 78 996.2
20260507100119 13 0 0.0 0.0 0.00 0.00 0.00 77 996.2
20260507095618 13 22 0.0 0.0 0.00 0.00 0.00 77 996.1
20260507095118 13 22 0.0 1.6 0.00 0.00 0.00 77 995.9
20260507095038 13 0 0.0 4.8 0.00 0.00 0.00 77 995.7
20260507094618 13 0 0.0 4.8 0.00 0.00 0.00 77 995.7
20260507094118 14 22 4.8 4.8 0.00 0.00 0.00 77 995.9
20260507093618 14 22 4.8 4.8 0.00 0.00 0.00 76 995.8
20260507093121 14 0 0.0 1.6 0.00 0.00 0.00 76 995.8
20260507092617 14 0 0.0 1.6 0.00 0.00 0.00 76 995.5
20260507092157 14 22 1.6 8.0 0.00 0.00 0.00 76 995.6
20260507092116 14 22 1.6 8.0 0.00 0.00 0.00 76 995.6
20260507091616 15 0 0.0 0.0 0.00 0.00 0.00 76 995.6
20260507091116 15 22 0.0 0.0 0.00 0.00 0.00 75 995.6
20260507090716 15 0 0.0 0.0 0.00 0.00 0.00 76 995.5
20260507090616 15 0 0.0 0.0 0.00 0.00 0.00 76 995.5
20260507090115 15 0 0.0 0.0 0.00 0.00 0.00 76 995.4
20260507085615 15 0 0.0 0.0 0.00 0.00 0.00 77 995.4
20260507085115 15 0 0.0 0.0 0.00 0.00 0.00 77 995.3
20260507084614 15 22 0.0 0.0 0.00 0.00 0.00 77 995.2
20260507084114 15 22 0.0 1.6 0.00 0.00 0.00 76 995.1
20260507083614 15 22 1.6 1.6 0.00 0.00 0.00 76 995.1
20260507083113 15 22 0.0 3.2 0.00 0.00 0.00 76 994.9
20260507082619 16 22 1.6 1.6 0.00 0.00 0.00 75 994.8
20260507082613 16 22 1.6 1.6 0.00 0.00 0.00 75 994.8
20260507082114 16 0 0.0 6.4 0.00 0.00 0.00 75 994.8
20260507081613 16 0 3.2 6.4 0.00 0.00 0.00 76 994.7
20260507081113 15 0 0.0 3.2 0.00 0.00 0.00 76 994.6
20260507080612 15 0 3.2 3.2 0.00 0.00 0.00 77 994.7
20260507080112 15 22 0.0 3.2 0.00 0.00 0.00 77 994.7
20260507075612 15 22 3.2 3.2 0.00 0.00 0.00 76 994.7
20260507075117 -14 22 1.6 9.7 0.00 0.00 0.00 75 994.7
20260507075111 16 22 1.6 9.7 0.00 0.00 0.00 75 994.7
20260507074611 16 22 4.8 4.8 0.00 0.00 0.00 75 994.4
20260507074111 16 22 1.6 1.6 0.00 0.00 0.00 75 994.4
20260507073610 16 22 0.0 8.0 0.00 0.00 0.00 74 994.3